User: anonymous   Login
Location: Bushey
(51.6333°N, 0.3667°W)
Time: 17:25:27
(UTC+00:00)
Language:

Cosmos 1862 Rocket - Orbit

View from above orbital plane
View from above orbital plane
View from above satellite
View from above satellite

Ground track
Ground track

The orbit data is extracted from the following two-line orbital elements,

1 18153U 87055B   21129.28441676  .00000066  00000-0  51077-5 0  9993
2 18153  82.5028 209.2151 0023105  79.4187 280.9629 14.83326771808084
Epoch (UTC): 09 May 2021 06:49:33
Eccentricity: 0.0023105
inclination: 82.5028°
perigee height: 602 km
apogee height: 635 km
right ascension of ascending node: 209.2151°
argument of perigee: 79.4187°
revolutions per day: 14.83326771
mean anomaly at epoch: 280.9629°
orbit number at epoch: 80808

The dashed part of the orbit path shows where the satellite is in the earth's shadow,  

DLR